Regional Weather Roundup
Issued by NWS

Current Version | Previous Version | Text Only | Print | Product List | Glossary On
Versions: 1 2 3 4 5 6 7 8 9 10 11 12 13 14 15 16 17 18 19 20 21 22 23 24 25 26 27 28 29 30 31 32 33 34 35 36 37 38 39 40 41 42 43 44 45 46 47 48 49 50
000
ASUS46 KSEW 050920
RWRWA

WASHINGTON REGIONAL WEATHER ROUNDUP
NATIONAL WEATHER SERVICE SEATTLE WA
100 AM PST SAT DEC 05 2020

NOTE:"FAIR" INDICATES FEW OR NO CLOUDS BELOW 12,000 FEET WITH NO
SIGNIFICANT WEATHER AND/OR OBSTRUCTIONS TO VISIBILITY.

WAZ507-509-555>559-051000-
SEATTLE, TACOMA, EVERETT, AND VICINITY

CITY           SKY/WX    TMP DP  RH WIND       PRES   REMARKS
EVERETT        CLEAR     38  31  76 CALM      30.23F
BOEING FIELD   CLEAR     35  33  92 CALM      30.23F
RENTON         CLEAR     35  32  88 CALM      30.23F
SEATAC AIRPORT CLEAR     39  37  92 NE3       30.22F
JBLM-MCCHORD   CLEAR     28  26  94 CALM      30.22F
PUYALLUP       FAIR      32  32 100 CALM      30.22F
BREMERTON      CLEAR     31  30  96 CALM      30.23F
JBLM-FT LEWIS  CLEAR     28  28 100 SE5       30.21F
TACOMA NARROWS CLEAR     39  37  92 NE3       30.22F FOG
$$

WAZ001-503-506-510-514-515-051000-
NORTH INTERIOR

CITY           SKY/WX    TMP DP  RH WIND       PRES   REMARKS
BELLINGHAM     PTCLDY    30  27  88 CALM      30.23F
FRIDAY HARBOR  CLEAR     38  37  97 CALM      30.23F
EASTSOUND      CLEAR     36  36 100 CALM      30.22F FOG
PORT ANGELES   CLEAR     30  29  96 CALM      30.20F FOG
EDIZ HOOK      FAIR      35  35  99 CALM      30.21F
PORT TOWNSEND  FAIR      30  30 100 E5        30.21F
NAS WHIDBEY    PTCLDY    40  35  83 E14       30.26F
ARLINGTON      CLEAR     28  27  93 CALM      30.25F FOG
BURLINGTON     CLEAR     36  32  87 CALM      30.24F
$$

WAZ020-022-039-040-504-511-512-051000-
SOUTHWEST INTERIOR

CITY           SKY/WX    TMP DP  RH WIND       PRES   REMARKS
SHELTON        FOG       29  29 100 CALM      30.20F VSB 1/2
OLYMPIA        FOG       28  27  96 CALM      30.22F VSB 1/4
CHEHALIS       FOG       32  32 100 CALM      30.22F VSB<1/4
KELSO          CLEAR     29  28  96 CALM      30.25F
VANCOUVER      CLEAR     35  27  72 N3        30.25F
SCAPPOOSE, OR  CLEAR     32  29  88 W6        30.25F
PORTLAND, OR   CLEAR     43  29  57 SE16      30.24F
$$

WAZ021-516-517-051000-
WASHINGTON COAST

CITY           SKY/WX    TMP DP  RH WIND       PRES   REMARKS
FORKS          PTCLDY    41  32  70 E8        30.13F
HOQUIAM        CLEAR     43  35  73 E13       30.16F
ASTORIA, OR    CLEAR     46  33  60 E8        30.14F
$$

WAZ019-023-024-040-567>569-051000-
CASCADE MOUNTAINS AND COLUMBIA GORGE

CITY           SKY/WX    TMP DP  RH WIND       PRES   REMARKS
STAMPEDE PASS  CLEAR     27  23  85 VRB5      30.33F
TROUTDALE, OR  CLEAR     40  31  70 E30G40    30.25F
HOOD RIVER, OR CLOUDY    32  30  93 NE12G17   30.53F WCI  23
THE DALLES, OR CLOUDY    32  27  81 E9        30.57F
$$

WAZ026-027-041>044-520-521-051000-
EAST SLOPES

CITY           SKY/WX    TMP DP  RH WIND       PRES   REMARKS
OMAK           FOG       21  18  88 CALM      30.53F VSB 1/4
WENATCHEE      CLEAR     28  26  92 NW5       30.50F
ELLENSBURG     CLEAR     22  17  81 CALM      30.47F
YAKIMA         CLEAR     21  18  88 NW5       30.51F
SUNNYSIDE ARPT FOG       27  26  96 E5        30.53F VSB 1/2
YAKIMA TC      FAIR      26  22  84 E6        30.47F
$$

WAZ028-034-035-051000-
COLUMBIA BASIN

CITY           SKY/WX    TMP DP  RH WIND       PRES   REMARKS
EPHRATA        CLEAR     22  21  96 SE5       30.49F
MOSES LAKE     CLEAR     24  20  84 N5        30.51F
PASCO          CLOUDY    30  28  92 N3        30.56F FOG
RICHLAND ARPT  CLOUDY    29  29 100 CALM      30.57F
HERMISTON, OR  CLOUDY    31  27  85 N6        30.53F FOG
$$

WAZ036>038-051000-
NORTHEAST WASHINGTON

CITY           SKY/WX    TMP DP  RH WIND       PRES   REMARKS
SPOKANE GEIGER MOCLDY    39  22  50 NE8       30.45F FOG
SPOKANE FELTS  MOCLDY    25  23  92 CALM      30.48F
FAIRCHILD AFB  MOCLDY    23  23 100 NE6       30.44F
COEURDALENE,ID CLOUDY    28  26  92 NE13      30.48F WCI  17
DEER PARK      CLEAR     22  19  89 N6        30.48F
$$

WAZ029>033-051000-
SOUTHEAST WASHINGTON

CITY           SKY/WX    TMP DP  RH WIND       PRES   REMARKS
PULLMAN        CLEAR     23  19  85 CALM      30.45S
LEWISTON, ID   CLEAR     27  22  81 CALM      30.49S
WALLA WALLA    CLOUDY    26  25  96 SW5       30.51F FOG
PENDLETON, OR  SNOW      29  27  92 SE6       30.49S VSB 1/4
$$




USA.gov is the U.S. government's official web portal to all federal, state and local government web resources and services.